Regional Weather Roundup
Issued by NWS

Home | Current Version | Previous Version | Graphics & Text | Print | Product List | Glossary On
Versions: 1 2 3 4 5 6 7 8 9 10 11 12 13 14 15 16 17 18 19 20 21 22 23 24 25 26 27 28 29 30 31 32 33 34 35 36 37 38 39 40 41 42 43 44 45 46 47 48 49 50
958
ASUS44 KLIX 311610
RWRLA
LOUISIANA WEATHER ROUNDUP
NATIONAL WEATHER SERVICE NEW ORLEANS LA
1000 AM CST SAT JAN 31 2015

NOTE: "FAIR" INDICATES FEW OR NO CLOUDS BELOW 12,000 FEET WITH NO
      SIGNIFICANT WEATHER AND/OR OBSTRUCTIONS TO VISIBILITY.
      SKY/WX - SKY CONDITION AND SIGNIFICANT WEATHER.
      TMP - AIR TEMPERATURE.    DP   - DEWPOINT TEMPERATURE.
      RH  - RELATIVE HUMIDITY.  PRES - PRESSURE.
      HX  - HEAT INDEX.         WCI  - WIND CHILL INDEX.

*  THESE STATIONS ARE NOT NWS OR FAA STATIONS AND ARE NOT UNDER
   NWS QUALITY CONTROL.

LAZ040-048-061>063-065-066-069-311700-
SOUTHEAST LOUISIANA

CITY           SKY/WX    TMP DP  RH WIND       PRES   REMARKS
N.O. AUDUBON     N/A     58  44  60 MISG        N/A
N.O. INTL ARPT MOSUNNY   54  41  61 NE9       30.32R
N.O. LAKEFRONT SUNNY     54  40  59 E10       30.34R
N.O. DOWNTOWN* NOT AVBL
SLIDELL        SUNNY     51  34  52 E7        30.34R
BATON ROUGE    MOSUNNY   51  31  46 E10       30.31S
BOOTHVILLE     SUNNY     59  51  75 NE8       30.31R
BELLE CHASSE   MOSUNNY   59  42  53 E12       30.31R
BOGALUSA*        N/A     50  29  43 SE7       30.37S
GALLIANO*      SUNNY     61  47  61 MISG      30.30S
NEW ROADS*     FAIR      48  29  48 E7        30.32S
GONZALES*      FAIR      53  39  59 E6        30.31S
HAMMOND*       SUNNY     50  32  50 E8        30.35S
HOUMA*         SUNNY     57  45  62 NE12      30.30S
PORT FOURCHON* SUNNY     61  52  72 E14G20    30.31S

$$

LAZ041-044-053-054-311700-
SOUTHWEST LOUISIANA

CITY           SKY/WX    TMP DP  RH WIND       PRES   REMARKS
LAKE CHARLES   PTSUNNY   52  39  61 E13       30.27R
LAFAYETTE      PTSUNNY   53  38  56 VRB3      30.29S
PATTERSON      SUNNY     55  41  58 E12       30.29F
SALT POINT       N/A     57  43  59 VRB7      30.26F
NEW IBERIA     MOSUNNY   56  39  53 E10       30.29S
CHENAULT AIRPK SUNNY     50  39  66 E7        30.28R

$$

LAZ027-028-311700-
CENTRAL LOUISIANA

CITY           SKY/WX    TMP DP  RH WIND       PRES   REMARKS
FORT POLK      CLOUDY    50  33  50 SE9       30.27R
ALEXANDRIA INT PTSUNNY   49  32  52 SE13      30.30R
ALEXANDRIA     PTSUNNY   49  31  49 E9        30.30F

$$

LAZ001-002-311700-
NORTHWEST LOUISIANA

CITY           SKY/WX    TMP DP  RH WIND       PRES   REMARKS
SHREVEPORT     CLOUDY    48  31  51 SE12      30.30R
BARKSDALE AFB  CLOUDY    47  31  52 S12       30.30R
DTN SHREVEPORT CLOUDY    46  30  53 SE6       30.31R

$$

LAZ014-016-311700-
NORTHEAST LOUISIANA

CITY           SKY/WX    TMP DP  RH WIND       PRES   REMARKS
MONROE         PTSUNNY   45  31  58 E7        30.34F
TALLULAH       PTSUNNY   47  28  47 SE12      30.35R

$$




USA.gov is the U.S. government's official web portal to all federal, state and local government web resources and services.